| time (UTC) | temp F | wind direction | speed MPH | gust MPH | rain 1hr in | rain 24hr in | rain mn in | humidity % | barometer mb |
| 20260510004548 | 99 | 242 | 9.0 | 0.0 | 0.00 | 0.00 | 0.00 | 7 | 1002.5 |
| 20260510003043 | 99 | 240 | 9.0 | 0.0 | 0.00 | 0.00 | 0.00 | 7 | 1002.6 |
| 20260510001538 | 99 | 269 | 9.0 | 0.0 | 0.00 | 0.00 | 0.00 | 8 | 1002.6 |
| 20260510000033 | 100 | 267 | 9.0 | 0.0 | 0.00 | 0.00 | 0.00 | 9 | 1002.6 |
| 20260509234530 | 100 | 292 | 10.0 | 0.0 | 0.00 | 0.00 | 0.00 | 9 | 1002.4 |
| 20260509233031 | 101 | 310 | 6.0 | 0.0 | 0.00 | 0.00 | 0.00 | 8 | 1002.5 |
| 20260509231520 | 101 | 249 | 4.0 | 0.0 | 0.00 | 0.00 | 0.00 | 8 | 1002.6 |
| 20260509230024 | 100 | 194 | 6.0 | 0.0 | 0.00 | 0.00 | 0.00 | 8 | 1002.6 |
| 20260509224512 | 100 | 178 | 5.0 | 0.0 | 0.00 | 0.00 | 0.00 | 8 | 1002.8 |
| 20260509223008 | 100 | 135 | 5.0 | 0.0 | 0.00 | 0.00 | 0.00 | 7 | 1003.1 |
| 20260509221504 | 100 | 117 | 7.0 | 0.0 | 0.00 | 0.00 | 0.00 | 7 | 1003.4 |
| 20260509220059 | 101 | 104 | 6.0 | 0.0 | 0.00 | 0.00 | 0.00 | 5 | 1003.5 |
| 20260509214555 | 101 | 90 | 6.0 | 0.0 | 0.00 | 0.00 | 0.00 | 4 | 1003.8 |
| 20260509213105 | 100 | 89 | 4.0 | 0.0 | 0.00 | 0.00 | 0.00 | 5 | 1004.0 |
| 20260509211549 | 99 | 69 | 6.0 | 0.0 | 0.00 | 0.00 | 0.00 | 4 | 1004.3 |
| 20260509210046 | 99 | 111 | 5.0 | 0.0 | 0.00 | 0.00 | 0.00 | 4 | 1004.5 |
| 20260509204538 | 100 | 28 | 4.0 | 0.0 | 0.00 | 0.00 | 0.00 | 4 | 1004.7 |
| 20260509203034 | 99 | 309 | 2.0 | 0.0 | 0.00 | 0.00 | 0.00 | 4 | 1005.0 |
| 20260509201528 | 98 | 57 | 4.0 | 0.0 | 0.00 | 0.00 | 0.00 | 3 | 1005.2 |
| 20260509200023 | 98 | 68 | 4.0 | 0.0 | 0.00 | 0.00 | 0.00 | 3 | 1005.4 |
| 20260509194531 | 98 | 36 | 4.0 | 0.0 | 0.00 | 0.00 | 0.00 | 3 | 1005.4 |
| 20260509193022 | 97 | 352 | 4.0 | 0.0 | 0.00 | 0.00 | 0.00 | 3 | 1005.7 |
| 20260509191510 | 97 | 68 | 5.0 | 0.0 | 0.00 | 0.00 | 0.00 | 3 | 1005.9 |
| 20260509190007 | 96 | 104 | 4.0 | 0.0 | 0.00 | 0.00 | 0.00 | 3 | 1006.0 |
| 20260509184502 | 95 | 131 | 3.0 | 0.0 | 0.00 | 0.00 | 0.00 | 4 | 1006.2 |
| 20260509183100 | 94 | 121 | 4.0 | 0.0 | 0.00 | 0.00 | 0.00 | 4 | 1006.4 |
| 20260509181601 | 94 | 116 | 4.0 | 0.0 | 0.00 | 0.00 | 0.00 | 4 | 1006.5 |
| 20260509180058 | 93 | 89 | 2.0 | 0.0 | 0.00 | 0.00 | 0.00 | 3 | 1006.7 |
| 20260509174547 | 93 | 71 | 5.0 | 0.0 | 0.00 | 0.00 | 0.00 | 3 | 1006.8 |
| 20260509173053 | 92 | 147 | 3.0 | 0.0 | 0.00 | 0.00 | 0.00 | 3 | 1006.7 |
| 20260509171539 | 92 | 92 | 2.0 | 0.0 | 0.00 | 0.00 | 0.00 | 3 | 1006.8 |
| 20260509170031 | 91 | 92 | 3.0 | 0.0 | 0.00 | 0.00 | 0.00 | 4 | 1006.7 |
| 20260509164527 | 91 | 46 | 3.0 | 0.0 | 0.00 | 0.00 | 0.00 | 5 | 1006.7 |
| 20260509163022 | 90 | 103 | 3.0 | 0.0 | 0.00 | 0.00 | 0.00 | 5 | 1006.8 |
| 20260509161517 | 89 | 42 | 2.0 | 0.0 | 0.00 | 0.00 | 0.00 | 5 | 1006.7 |
| 20260509160014 | 89 | 99 | 1.0 | 0.0 | 0.00 | 0.00 | 0.00 | 3 | 1006.7 |
| 20260509154509 | 89 | 304 | 1.0 | 0.0 | 0.00 | 0.00 | 0.00 | 3 | 1006.6 |
| 20260509153013 | 87 | 304 | 1.0 | 0.0 | 0.00 | 0.00 | 0.00 | 3 | 1006.7 |
| 20260509151600 | 85 | 304 | 0.0 | 0.0 | 0.00 | 0.00 | 0.00 | 4 | 1006.7 |
| 20260509150108 | 83 | 304 | 0.0 | 0.0 | 0.00 | 0.00 | 0.00 | 4 | 1006.7 |
| 20260509144553 | 81 | 304 | 1.0 | 0.0 | 0.00 | 0.00 | 0.00 | 5 | 1006.7 |
| 20260509143048 | 80 | 279 | 3.0 | 0.0 | 0.00 | 0.00 | 0.00 | 5 | 1006.6 |
| 20260509141545 | 78 | 202 | 4.0 | 0.0 | 0.00 | 0.00 | 0.00 | 4 | 1006.4 |
| 20260509140054 | 76 | 205 | 5.0 | 0.0 | 0.00 | 0.00 | 0.00 | 5 | 1006.3 |
| 20260509134535 | 75 | 194 | 5.0 | 0.0 | 0.00 | 0.00 | 0.00 | 5 | 1006.1 |
| 20260509133030 | 75 | 191 | 7.0 | 0.0 | 0.00 | 0.00 | 0.00 | 4 | 1005.9 |
| 20260509131526 | 74 | 204 | 6.0 | 0.0 | 0.00 | 0.00 | 0.00 | 5 | 1005.8 |
| 20260509130022 | 74 | 200 | 7.0 | 0.0 | 0.00 | 0.00 | 0.00 | 5 | 1005.7 |
| 20260509124518 | 73 | 210 | 7.0 | 0.0 | 0.00 | 0.00 | 0.00 | 5 | 1005.6 |
| 20260509123012 | 73 | 220 | 6.0 | 0.0 | 0.00 | 0.00 | 0.00 | 5 | 1005.4 |
| 20260509121508 | 75 | 216 | 5.0 | 0.0 | 0.00 | 0.00 | 0.00 | 5 | 1005.4 |
| 20260509120004 | 75 | 215 | 5.0 | 0.0 | 0.00 | 0.00 | 0.00 | 5 | 1005.3 |
| 20260509114501 | 75 | 204 | 5.0 | 0.0 | 0.00 | 0.00 | 0.00 | 6 | 1005.3 |
| 20260509113059 | 76 | 207 | 4.0 | 0.0 | 0.00 | 0.00 | 0.00 | 5 | 1005.2 |
| 20260509111559 | 79 | 207 | 3.0 | 0.0 | 0.00 | 0.00 | 0.00 | 6 | 1005.3 |
| 20260509110057 | 80 | 167 | 5.0 | 0.0 | 0.00 | 0.00 | 0.00 | 7 | 1005.4 |
| 20260509104603 | 75 | 189 | 3.0 | 0.0 | 0.00 | 0.00 | 0.00 | 6 | 1005.3 |
| 20260509103105 | 76 | 279 | 3.0 | 0.0 | 0.00 | 0.00 | 0.00 | 6 | 1005.4 |
| 20260509101559 | 77 | 214 | 5.0 | 0.0 | 0.00 | 0.00 | 0.00 | 5 | 1005.3 |
| 20260509100051 | 77 | 214 | 2.0 | 0.0 | 0.00 | 0.00 | 0.00 | 7 | 1005.4 |
| 20260509094557 | 78 | 223 | 2.0 | 0.0 | 0.00 | 0.00 | 0.00 | 5 | 1005.4 |
| 20260509093047 | 79 | 188 | 3.0 | 0.0 | 0.00 | 0.00 | 0.00 | 5 | 1005.4 |
| 20260509091550 | 79 | 181 | 2.0 | 0.0 | 0.00 | 0.00 | 0.00 | 8 | 1005.5 |
| 20260509090052 | 80 | 55 | 2.0 | 0.0 | 0.00 | 0.00 | 0.00 | 7 | 1005.6 |
| 20260509084542 | 79 | 219 | 1.0 | 0.0 | 0.00 | 0.00 | 0.00 | 6 | 1005.8 |
| 20260509083041 | 78 | 80 | 1.0 | 0.0 | 0.00 | 0.00 | 0.00 | 6 | 1005.7 |
| 20260509081535 | 80 | 223 | 2.0 | 0.0 | 0.00 | 0.00 | 0.00 | 6 | 1005.8 |
| 20260509080033 | 81 | 283 | 2.0 | 0.0 | 0.00 | 0.00 | 0.00 | 6 | 1005.8 |
| 20260509074529 | 82 | 283 | 1.0 | 0.0 | 0.00 | 0.00 | 0.00 | 4 | 1006.0 |
| 20260509073035 | 83 | 211 | 3.0 | 0.0 | 0.00 | 0.00 | 0.00 | 5 | 1006.0 |
| 20260509071524 | 83 | 295 | 2.0 | 0.0 | 0.00 | 0.00 | 0.00 | 4 | 1006.1 |
| 20260509070023 | 82 | 238 | 1.0 | 0.0 | 0.00 | 0.00 | 0.00 | 4 | 1006.2 |
| 20260509064522 | 83 | 270 | 3.0 | 0.0 | 0.00 | 0.00 | 0.00 | 4 | 1006.3 |
| 20260509063028 | 84 | 259 | 3.0 | 0.0 | 0.00 | 0.00 | 0.00 | 4 | 1006.4 |
| 20260509061520 | 84 | 248 | 4.0 | 0.0 | 0.00 | 0.00 | 0.00 | 4 | 1006.4 |
| 20260509060122 | 85 | 267 | 5.0 | 0.0 | 0.00 | 0.00 | 0.00 | 4 | 1006.4 |
| 20260509054519 | 85 | 265 | 6.0 | 0.0 | 0.00 | 0.00 | 0.00 | 4 | 1006.3 |
| 20260509053029 | 85 | 281 | 8.0 | 0.0 | 0.00 | 0.00 | 0.00 | 5 | 1006.5 |
| 20260509051520 | 85 | 279 | 7.0 | 0.0 | 0.00 | 0.00 | 0.00 | 5 | 1006.5 |
| 20260509050019 | 85 | 279 | 9.0 | 0.0 | 0.00 | 0.00 | 0.00 | 5 | 1006.5 |
| 20260509044518 | 85 | 265 | 9.0 | 0.0 | 0.00 | 0.00 | 0.00 | 6 | 1006.4 |
| 20260509043036 | 85 | 288 | 9.0 | 0.0 | 0.00 | 0.00 | 0.00 | 6 | 1006.4 |
| 20260509041517 | 86 | 270 | 9.0 | 0.0 | 0.00 | 0.00 | 0.00 | 6 | 1006.3 |
| 20260509040015 | 86 | 261 | 10.0 | 0.0 | 0.00 | 0.00 | 0.00 | 7 | 1006.1 |
| 20260509034515 | 86 | 226 | 11.0 | 0.0 | 0.00 | 0.00 | 0.00 | 7 | 1006.0 |
| 20260509033014 | 86 | 260 | 13.0 | 0.0 | 0.00 | 0.00 | 0.00 | 8 | 1005.8 |
| 20260509031514 | 87 | 260 | 13.0 | 0.0 | 0.00 | 0.00 | 0.00 | 8 | 1005.7 |
| 20260509030013 | 87 | 264 | 12.0 | 0.0 | 0.00 | 0.00 | 0.00 | 9 | 1005.6 |
| 20260509024512 | 87 | 275 | 14.0 | 0.0 | 0.00 | 0.00 | 0.00 | 9 | 1005.4 |
| 20260509023012 | 88 | 271 | 16.0 | 0.0 | 0.00 | 0.00 | 0.00 | 9 | 1005.3 |
| 20260509021512 | 88 | 279 | 16.0 | 0.0 | 0.00 | 0.00 | 0.00 | 9 | 1005.1 |
| 20260509020011 | 89 | 270 | 16.0 | 0.0 | 0.00 | 0.00 | 0.00 | 10 | 1005.1 |
| 20260509014520 | 90 | 302 | 14.0 | 0.0 | 0.00 | 0.00 | 0.00 | 11 | 1005.1 |
| 20260509013010 | 91 | 275 | 15.0 | 0.0 | 0.00 | 0.00 | 0.00 | 11 | 1005.1 |
| 20260509011511 | 92 | 288 | 15.0 | 0.0 | 0.00 | 0.00 | 0.00 | 12 | 1005.0 |
| 20260509010008 | 93 | 277 | 12.0 | 0.0 | 0.00 | 0.00 | 0.00 | 11 | 1005.0 |